,,,PA_Meas_PMT16A,,PR_Meas_QMR101_102,,RH_Meas_QMH101,,SR_Meas_QMS101,,TA_Meas_QMH101,,GenWind,,GenWind,
date,time,status,PA,status,PR,status,RH,status,SR,status,TA,status,DirAvg,status,SpdAvg,
2010-08-20, 00:00:04,VALID,1003.94,VALID,0,VALID,87.1752,VALID,0,VALID,26.4492,VALID,355,VALID,0.848437,
2010-08-20, 00:01:04,VALID,1003.95,VALID,0,VALID,87.6406,VALID,0,VALID,26.3498,VALID,10,VALID,0.658594,
2010-08-20, 00:02:04,VALID,1003.97,VALID,0,VALID,88.1365,VALID,0,VALID,26.3128,VALID,20,VALID,0.410156,
2010-08-20, 00:03:04,VALID,1004,VALID,0,VALID,88.64,VALID,0,VALID,26.2933,VALID,17,VALID,0.671094,
2010-08-20, 00:04:04,VALID,1003.96,VALID,0,VALID,88.8993,VALID,0,VALID,26.2134,VALID,15,VALID,0.469141,
2010-08-20, 00:05:04,VALID,1003.88,VALID,0,VALID,89.5554,VALID,0,VALID,26.194,VALID,5,VALID,0.285547,
2010-08-20, 00:06:04,VALID,1003.87,VALID,0,VALID,90.2115,VALID,0,VALID,26.2134,VALID,20,VALID,0.689844,
2010-08-20, 00:07:04,VALID,1003.82,VALID,0,VALID,89.441,VALID,0,VALID,26.2739,VALID,14,VALID,0.484375,
2010-08-20, 00:08:04,VALID,1003.81,VALID,0,VALID,89.1053,VALID,0,VALID,26.2524,VALID,360,VALID,0.714844,
2010-08-20, 00:09:04,VALID,1003.78,VALID,0,VALID,88.9375,VALID,0,VALID,26.3713,VALID,21,VALID,1.78164,
2010-08-20, 00:10:04,VALID,1003.83,VALID,0,VALID,87.8389,VALID,0,VALID,26.5076,VALID,18,VALID,0.728906,
2010-08-20, 00:11:04,VALID,1003.84,VALID,0,VALID,87.1752,VALID,0,VALID,26.5446,VALID,360,VALID,0.707031,
2010-08-20, 00:12:04,VALID,1003.83,VALID,0,VALID,86.9158,VALID,0,VALID,26.5855,VALID,1,VALID,0.809766,
2010-08-20, 00:13:04,VALID,1003.79,VALID,0,VALID,86.8777,VALID,0,VALID,26.5446,VALID,353,VALID,0.891406,
2010-08-20, 00:14:04,VALID,1003.83,VALID,0,VALID,86.9158,VALID,0,VALID,26.5446,VALID,35,VALID,0.532031,
2010-08-20, 00:15:04,VALID,1003.83,VALID,0,VALID,86.7938,VALID,0,VALID,26.5661,VALID,347,VALID,1.45781,
2010-08-20, 00:16:04,VALID,1003.83,VALID,0,VALID,86.6488,VALID,0,VALID,26.6245,VALID,98,VALID,1.12305,
2010-08-20, 00:17:04,VALID,1003.84,VALID,0,VALID,86.2521,VALID,0,VALID,26.6614,VALID,4,VALID,1.65313,
2010-08-20, 00:18:04,VALID,1003.88,VALID,0,VALID,85.9317,VALID,0,VALID,26.7199,VALID,25,VALID,0.583984,
2010-08-20, 00:19:05,VALID,1003.88,VALID,0,VALID,85.7257,VALID,0,VALID,26.7394,VALID,27,VALID,0.667188,
2010-08-20, 00:20:05,VALID,1003.89,VALID,0,VALID,85.7791,VALID,0,VALID,26.7199,VALID,30,VALID,0.89375,
2010-08-20, 00:21:05,VALID,1003.92,VALID,0,VALID,85.8554,VALID,0,VALID,26.7004,VALID,7,VALID,0.734375,
2010-08-20, 00:22:05,VALID,1003.92,VALID,0,VALID,85.9546,VALID,0,VALID,26.6809,VALID,14,VALID,0.780078,
2010-08-20, 00:23:05,VALID,1003.94,VALID,0,VALID,86.0538,VALID,0,VALID,26.6809,VALID,4,VALID,0.624219,
2010-08-20, 00:24:05,VALID,1003.91,VALID,0,VALID,85.9317,VALID,0,VALID,26.6594,VALID,19,VALID,1.17734,
2010-08-20, 00:25:05,VALID,1003.85,VALID,0,VALID,85.8173,VALID,0.100563,VALID,26.7219,VALID,79,VALID,0.516797,
2010-08-20, 00:26:05,VALID,1003.83,VALID,0,VALID,85.6876,VALID,0,VALID,26.7199,VALID,64,VALID,0.714453,
2010-08-20, 00:27:05,VALID,1003.78,VALID,0,VALID,85.6952,VALID,0,VALID,26.7199,VALID,356,VALID,0.591016,
2010-08-20, 00:28:05,VALID,1003.75,VALID,0,VALID,85.7486,VALID,0.100563,VALID,26.6809,VALID,12,VALID,0.419141,
2010-08-20, 00:29:05,VALID,1003.71,VALID,0,VALID,85.8478,VALID,0.100563,VALID,26.6614,VALID,7,VALID,0.657031,
2010-08-20, 00:30:05,VALID,1003.66,VALID,0,VALID,85.9165,VALID,0,VALID,26.642,VALID,15,VALID,0.841797,
2010-08-20, 00:31:05,VALID,1003.59,VALID,0,VALID,86.0233,VALID,0,VALID,26.642,VALID,45,VALID,0.800781,
2010-08-20, 00:32:05,VALID,1003.59,VALID,0,VALID,85.9775,VALID,0,VALID,26.642,VALID,23,VALID,1.01602,
2010-08-20, 00:33:05,VALID,1003.58,VALID,0,VALID,85.947,VALID,0,VALID,26.683,VALID,16,VALID,1.22734,
2010-08-20, 00:34:05,VALID,1003.61,VALID,0,VALID,85.7486,VALID,0,VALID,26.7219,VALID,22,VALID,0.733203,
2010-08-20, 00:35:05,VALID,1003.59,VALID,0,VALID,85.6037,VALID,0,VALID,26.7004,VALID,105,VALID,1.00781,
2010-08-20, 00:36:05,VALID,1003.65,VALID,0,VALID,85.5045,VALID,0,VALID,26.7609,VALID,28,VALID,1.36953,
2010-08-20, 00:37:05,VALID,1003.67,VALID,0,VALID,85.329,VALID,0.100563,VALID,26.7589,VALID,33,VALID,1.3125,
2010-08-20, 00:38:05,VALID,1003.69,VALID,0,VALID,85.3061,VALID,0,VALID,26.7998,VALID,41,VALID,0.584766,
2010-08-20, 00:39:05,VALID,1003.72,VALID,0,VALID,85.1917,VALID,0,VALID,26.7998,VALID,24,VALID,0.767187,
2010-08-20, 00:40:05,VALID,1003.71,VALID,0,VALID,85.1917,VALID,0,VALID,26.7783,VALID,356,VALID,0.229297,
2010-08-20, 00:41:05,VALID,1003.72,VALID,0,VALID,85.1307,VALID,0,VALID,26.7783,VALID,356,VALID,0.403906,
2010-08-20, 00:42:05,VALID,1003.7,VALID,0,VALID,85.2375,VALID,0.100563,VALID,26.7804,VALID,50,VALID,0.271875,
2010-08-20, 00:43:05,VALID,1003.69,VALID,0,VALID,85.2833,VALID,0,VALID,26.7609,VALID,66,VALID,0.546875,
2010-08-20, 00:44:05,VALID,1003.64,VALID,0,VALID,85.2299,VALID,0,VALID,26.7804,VALID,66,VALID,0.926172,
2010-08-20, 00:45:05,VALID,1003.67,VALID,0,VALID,85.0696,VALID,0,VALID,26.7998,VALID,51,VALID,0.705469,
2010-08-20, 00:46:05,VALID,1003.65,VALID,0,VALID,84.9094,VALID,0,VALID,26.8388,VALID,38,VALID,0.611719,
2010-08-20, 00:47:05,VALID,1003.64,VALID,0,VALID,84.8637,VALID,0,VALID,26.8368,VALID,33,VALID,0.588281,
2010-08-20, 00:48:05,VALID,1003.66,VALID,0,VALID,84.6348,VALID,0,VALID,26.8368,VALID,56,VALID,0.777734,
2010-08-20, 00:49:05,VALID,1003.63,VALID,0,VALID,84.4288,VALID,0,VALID,26.8973,VALID,27,VALID,0.800781,
2010-08-20, 00:50:05,VALID,1003.61,VALID,0,VALID,84.3602,VALID,0,VALID,26.8757,VALID,37,VALID,0.317187,
2010-08-20, 00:51:05,VALID,1003.6,VALID,0,VALID,84.2534,VALID,0,VALID,26.8952,VALID,12,VALID,0.317578,
2010-08-20, 00:52:05,VALID,1003.6,VALID,0,VALID,84.3068,VALID,0,VALID,26.8778,VALID,12,VALID,0.654688,
2010-08-20, 00:53:05,VALID,1003.6,VALID,0,VALID,84.383,VALID,0,VALID,26.8778,VALID,12,VALID,0.349219,
2010-08-20, 00:54:05,VALID,1003.6,VALID,0,VALID,84.4136,VALID,0,VALID,26.8563,VALID,32,VALID,1.3375,
2010-08-20, 00:55:05,VALID,1003.59,VALID,0,VALID,84.2076,VALID,0,VALID,26.8952,VALID,23,VALID,1.01797,
2010-08-20, 00:56:05,VALID,1003.57,VALID,0,VALID,84.2762,VALID,0,VALID,26.8952,VALID,16,VALID,0.555078,
2010-08-20, 00:57:05,VALID,1003.54,VALID,0,VALID,84.2915,VALID,0,VALID,26.8757,VALID,13,VALID,1.28945,
2010-08-20, 00:58:05,VALID,1003.51,VALID,0,VALID,84.3144,VALID,0,VALID,26.8778,VALID,21,VALID,0.728516,
2010-08-20, 00:59:05,VALID,1003.47,VALID,0,VALID,84.4212,VALID,0,VALID,26.8583,VALID,24,VALID,1.09219,
2010-08-20, 01:00:05,VALID,1003.46,VALID,0,VALID,84.5738,VALID,0,VALID,26.8388,VALID,28,VALID,0.416797,
2010-08-20, 01:01:05,VALID,1003.48,VALID,0,VALID,84.6424,VALID,0,VALID,26.8388,VALID,39,VALID,1.12344,
2010-08-20, 01:02:05,VALID,1003.45,VALID,0,VALID,84.6272,VALID,0,VALID,26.8193,VALID,59,VALID,0.546875,
2010-08-20, 01:03:05,VALID,1003.47,VALID,0,VALID,84.6882,VALID,0,VALID,26.7783,VALID,15,VALID,0.633594,
2010-08-20, 01:04:05,VALID,1003.4,VALID,0,VALID,84.8408,VALID,0,VALID,26.7589,VALID,37,VALID,0.325,
2010-08-20, 01:05:05,VALID,1003.47,VALID,0,VALID,84.8484,VALID,0,VALID,26.7609,VALID,69,VALID,0.766016,
2010-08-20, 01:06:05,VALID,1003.49,VALID,0,VALID,84.8408,VALID,0,VALID,26.7414,VALID,28,VALID,1.11211,
2010-08-20, 01:07:05,VALID,1003.48,VALID,0,VALID,84.7874,VALID,0,VALID,26.7394,VALID,55,VALID,0.409766,
2010-08-20, 01:08:05,VALID,1003.48,VALID,0,VALID,84.6501,VALID,0,VALID,26.7804,VALID,45,VALID,1.00352,
2010-08-20, 01:09:05,VALID,1003.44,VALID,0,VALID,84.5356,VALID,0,VALID,26.7804,VALID,359,VALID,0.769922,
2010-08-20, 01:10:05,VALID,1003.44,VALID,0,VALID,84.5127,VALID,0,VALID,26.7804,VALID,62,VALID,0.526953,
2010-08-20, 01:11:05,VALID,1003.42,VALID,0,VALID,84.4059,VALID,0,VALID,26.7783,VALID,96,VALID,1.33789,
2010-08-20, 01:12:05,VALID,1003.34,VALID,0,VALID,84.2381,VALID,0,VALID,26.8193,VALID,13,VALID,1.06016,
2010-08-20, 01:13:05,VALID,1003.33,VALID,0,VALID,84.3296,VALID,0,VALID,26.8388,VALID,21,VALID,0.850391,
2010-08-20, 01:14:05,VALID,1003.29,VALID,0,VALID,84.2381,VALID,0,VALID,26.8173,VALID,39,VALID,1.10156,
2010-08-20, 01:15:05,VALID,1003.25,VALID,0,VALID,83.9406,VALID,0,VALID,26.8563,VALID,44,VALID,0.7375,
2010-08-20, 01:16:05,VALID,1003.27,VALID,0,VALID,83.994,VALID,0,VALID,26.8563,VALID,357,VALID,0.546484,
2010-08-20, 01:17:05,VALID,1003.22,VALID,0,VALID,84.0474,VALID,0,VALID,26.8388,VALID,26,VALID,0.523828,
2010-08-20, 01:18:05,VALID,1003.22,VALID,0,VALID,84.1313,VALID,0,VALID,26.8388,VALID,38,VALID,0.832812,
2010-08-20, 01:19:05,VALID,1003.22,VALID,0,VALID,84.1237,VALID,0,VALID,26.7978,VALID,52,VALID,0.733594,
2010-08-20, 01:20:05,VALID,1003.22,VALID,0,VALID,84.2534,VALID,0,VALID,26.7589,VALID,64,VALID,0.982813,
2010-08-20, 01:21:05,VALID,1003.2,VALID,0,VALID,84.3449,VALID,0,VALID,26.7609,VALID,24,VALID,1.01484,
2010-08-20, 01:22:05,VALID,1003.15,VALID,0,VALID,84.4364,VALID,0,VALID,26.7414,VALID,12,VALID,1.06094,
2010-08-20, 01:23:05,VALID,1003.08,VALID,0,VALID,84.5204,VALID,0,VALID,26.7219,VALID,12,VALID,1.14805,
2010-08-20, 01:24:05,VALID,1003.06,VALID,0,VALID,84.5814,VALID,0.100563,VALID,26.7219,VALID,51,VALID,0.476953,
2010-08-20, 01:25:05,VALID,1002.98,VALID,0,VALID,84.5127,VALID,0,VALID,26.683,VALID,5,VALID,1.30117,
2010-08-20, 01:26:05,VALID,1002.96,VALID,0,VALID,84.5051,VALID,0,VALID,26.7004,VALID,25,VALID,1.10391,
2010-08-20, 01:27:05,VALID,1002.96,VALID,0,VALID,84.4899,VALID,0,VALID,26.7024,VALID,5,VALID,0.79375,
2010-08-20, 01:28:05,VALID,1002.95,VALID,0,VALID,84.6577,VALID,0,VALID,26.683,VALID,28,VALID,0.396875,
2010-08-20, 01:29:05,VALID,1002.95,VALID,0,VALID,84.6348,VALID,0,VALID,26.642,VALID,85,VALID,1.05234,
2010-08-20, 01:30:05,VALID,1002.95,VALID,0,VALID,84.4899,VALID,0,VALID,26.7024,VALID,28,VALID,1.16289,
2010-08-20, 01:31:05,VALID,1002.98,VALID,0,VALID,84.5738,VALID,0,VALID,26.7004,VALID,25,VALID,0.710156,
2010-08-20, 01:32:05,VALID,1002.98,VALID,0,VALID,84.6501,VALID,0,VALID,26.683,VALID,93,VALID,0.782812,
2010-08-20, 01:33:05,VALID,1003,VALID,0,VALID,84.6958,VALID,0,VALID,26.6614,VALID,37,VALID,0.680078,
2010-08-20, 01:34:05,VALID,1003.02,VALID,0,VALID,84.6729,VALID,0,VALID,26.6614,VALID,354,VALID,0.612109,
2010-08-20, 01:35:05,VALID,1003.01,VALID,0,VALID,84.734,VALID,0,VALID,26.6635,VALID,11,VALID,1.89805,
2010-08-20, 01:36:05,VALID,1003.03,VALID,0,VALID,84.6577,VALID,0,VALID,26.6809,VALID,64,VALID,0.568359,
2010-08-20, 01:37:05,VALID,1002.95,VALID,0,VALID,84.6195,VALID,0,VALID,26.7024,VALID,6,VALID,1.3668,
2010-08-20, 01:38:05,VALID,1002.97,VALID,0,VALID,84.4136,VALID,0,VALID,26.7024,VALID,4,VALID,1.34805,
2010-08-20, 01:39:05,VALID,1002.99,VALID,0,VALID,84.0703,VALID,0,VALID,26.7414,VALID,253,VALID,0.515625,
2010-08-20, 01:40:05,VALID,1002.98,VALID,0,VALID,84.116,VALID,0,VALID,26.7199,VALID,33,VALID,0.799219,
2010-08-20, 01:41:05,VALID,1002.96,VALID,0,VALID,84.0703,VALID,0,VALID,26.7589,VALID,39,VALID,0.730078,
2010-08-20, 01:42:05,VALID,1002.98,VALID,0,VALID,83.9101,VALID,0,VALID,26.7783,VALID,67,VALID,1.41055,
2010-08-20, 01:43:05,VALID,1002.98,VALID,0,VALID,83.8338,VALID,0,VALID,26.7978,VALID,41,VALID,0.660156,
2010-08-20, 01:44:05,VALID,1003.02,VALID,0,VALID,83.46,VALID,0,VALID,26.8173,VALID,19,VALID,2.13242,
2010-08-20, 01:45:05,VALID,1002.99,VALID,0,VALID,83.2845,VALID,0,VALID,26.9167,VALID,85,VALID,2.43633,
2010-08-20, 01:46:05,VALID,1003.06,VALID,0,VALID,83.048,VALID,0,VALID,26.9557,VALID,76,VALID,1.00078,
2010-08-20, 01:47:05,VALID,1003.08,VALID,0,VALID,82.9107,VALID,0,VALID,26.9537,VALID,75,VALID,0.857813,
2010-08-20, 01:48:05,VALID,1003.08,VALID,0,VALID,82.8954,VALID,0,VALID,26.9947,VALID,64,VALID,0.868359,
2010-08-20, 01:49:05,VALID,1003.04,VALID,0,VALID,82.842,VALID,0,VALID,26.9752,VALID,80,VALID,1.39922,
2010-08-20, 01:50:05,VALID,1003.03,VALID,0,VALID,82.6513,VALID,0,VALID,26.9926,VALID,62,VALID,0.892969,
2010-08-20, 01:51:05,VALID,1002.99,VALID,0,VALID,82.7047,VALID,0,VALID,26.9926,VALID,100,VALID,0.468359,
2010-08-20, 01:52:05,VALID,1002.98,VALID,0,VALID,82.8802,VALID,0,VALID,26.9537,VALID,28,VALID,0.771875,
2010-08-20, 01:53:05,VALID,1002.98,VALID,0,VALID,82.8954,VALID,0,VALID,26.9557,VALID,41,VALID,0.571484,
2010-08-20, 01:54:05,VALID,1002.95,VALID,0,VALID,82.8496,VALID,0,VALID,26.9362,VALID,86,VALID,1.20352,
2010-08-20, 01:55:05,VALID,1002.94,VALID,0,VALID,82.903,VALID,0,VALID,26.9342,VALID,73,VALID,0.983984,
2010-08-20, 01:56:05,VALID,1002.95,VALID,0,VALID,82.7657,VALID,0,VALID,26.9342,VALID,69,VALID,1.15937,
2010-08-20, 01:57:05,VALID,1002.95,VALID,0,VALID,82.8191,VALID,0,VALID,26.9752,VALID,81,VALID,0.748828,
2010-08-20, 01:58:05,VALID,1002.95,VALID,0,VALID,82.9946,VALID,0,VALID,26.9557,VALID,89,VALID,0.589453,
2010-08-20, 01:59:05,VALID,1002.91,VALID,0,VALID,83.0098,VALID,0,VALID,26.9167,VALID,46,VALID,1.47422,
2010-08-20, 02:00:05,VALID,1002.9,VALID,0,VALID,83.1014,VALID,0,VALID,26.9167,VALID,47,VALID,0.76875,
2010-08-20, 02:01:05,VALID,1002.91,VALID,0,VALID,83.1777,VALID,0,VALID,26.8952,VALID,53,VALID,0.550781,
2010-08-20, 02:02:05,VALID,1002.91,VALID,0,VALID,83.3989,VALID,0,VALID,26.8973,VALID,92,VALID,0.665625,
2010-08-20, 02:03:05,VALID,1002.94,VALID,0,VALID,83.3531,VALID,0,VALID,26.8778,VALID,84,VALID,0.907031,
2010-08-20, 02:04:05,VALID,1002.92,VALID,0,VALID,83.4065,VALID,0,VALID,26.8778,VALID,59,VALID,1.4875,
2010-08-20, 02:05:05,VALID,1002.93,VALID,0,VALID,83.5134,VALID,0,VALID,26.8563,VALID,74,VALID,0.974609,
2010-08-20, 02:06:05,VALID,1002.91,VALID,0,VALID,83.4523,VALID,0,VALID,26.8583,VALID,75,VALID,1.86719,
2010-08-20, 02:07:05,VALID,1002.88,VALID,0,VALID,83.4447,VALID,0,VALID,26.8583,VALID,82,VALID,0.901563,
2010-08-20, 02:08:05,VALID,1002.93,VALID,0,VALID,83.5057,VALID,0,VALID,26.8583,VALID,97,VALID,1.06992,
2010-08-20, 02:09:05,VALID,1002.96,VALID,0,VALID,83.6583,VALID,0,VALID,26.8388,VALID,83,VALID,0.883984,
2010-08-20, 02:10:05,VALID,1003.01,VALID,0,VALID,83.788,VALID,0,VALID,26.7783,VALID,82,VALID,0.918359,
2010-08-20, 02:11:05,VALID,1003.05,VALID,0,VALID,83.6964,VALID,0,VALID,26.8193,VALID,74,VALID,1.81797,
2010-08-20, 02:12:05,VALID,1003.06,VALID,0,VALID,84.0474,VALID,0,VALID,26.8193,VALID,94,VALID,1.07148,
2010-08-20, 02:13:05,VALID,1003.03,VALID,0,VALID,84.0321,VALID,0,VALID,26.7998,VALID,46,VALID,0.944531,
2010-08-20, 02:14:05,VALID,1002.97,VALID,0,VALID,84.1313,VALID,0,VALID,26.7998,VALID,61,VALID,0.49375,
2010-08-20, 02:15:05,VALID,1002.95,VALID,0,VALID,84.3525,VALID,0,VALID,26.7394,VALID,96,VALID,1.18242,
2010-08-20, 02:16:05,VALID,1002.91,VALID,0,VALID,84.7111,VALID,0,VALID,26.7414,VALID,29,VALID,0.659375,
2010-08-20, 02:17:05,VALID,1002.88,VALID,0,VALID,84.8484,VALID,0,VALID,26.7024,VALID,10,VALID,0.630859,
2010-08-20, 02:18:05,VALID,1002.85,VALID,0,VALID,84.8026,VALID,0,VALID,26.683,VALID,8,VALID,0.828516,
2010-08-20, 02:19:05,VALID,1002.83,VALID,0,VALID,85.0239,VALID,0,VALID,26.642,VALID,49,VALID,0.542969,
2010-08-20, 02:20:05,VALID,1002.86,VALID,0,VALID,84.9552,VALID,0,VALID,26.6245,VALID,48,VALID,2.04023,
2010-08-20, 02:21:05,VALID,1002.82,VALID,0,VALID,84.9552,VALID,0,VALID,26.6635,VALID,38,VALID,0.650781,
2010-08-20, 02:22:05,VALID,1002.82,VALID,0,VALID,84.9476,VALID,0,VALID,26.644,VALID,17,VALID,0.440234,
2010-08-20, 02:23:05,VALID,1002.8,VALID,0,VALID,84.9552,VALID,0,VALID,26.6225,VALID,32,VALID,0.294922,
2010-08-20, 02:24:05,VALID,1002.81,VALID,0,VALID,84.8408,VALID,0,VALID,26.6225,VALID,84,VALID,1.22187,
2010-08-20, 02:25:05,VALID,1002.88,VALID,0,VALID,84.734,VALID,0,VALID,26.6635,VALID,59,VALID,0.409766,
2010-08-20, 02:26:05,VALID,1002.85,VALID,0,VALID,84.5585,VALID,0,VALID,26.683,VALID,94,VALID,1.2832,
2010-08-20, 02:27:05,VALID,1002.88,VALID,0,VALID,84.5127,VALID,0,VALID,26.7219,VALID,49,VALID,0.794141,
2010-08-20, 02:28:05,VALID,1002.85,VALID,0,VALID,84.4136,VALID,0,VALID,26.7219,VALID,352,VALID,0.660547,
2010-08-20, 02:29:05,VALID,1002.77,VALID,0,VALID,84.2839,VALID,0,VALID,26.7219,VALID,19,VALID,1.00977,
2010-08-20, 02:30:05,VALID,1002.76,VALID,0,VALID,84.0931,VALID,0,VALID,26.7609,VALID,46,VALID,0.575781,
2010-08-20, 02:31:05,VALID,1002.75,VALID,0,VALID,84.2305,VALID,0,VALID,26.7804,VALID,52,VALID,0.347656,
2010-08-20, 02:32:05,VALID,1002.71,VALID,0,VALID,84.3296,VALID,0,VALID,26.7414,VALID,6,VALID,1.01055,
2010-08-20, 02:33:05,VALID,1002.68,VALID,0,VALID,84.3144,VALID,0,VALID,26.7219,VALID,344,VALID,0.998828,
2010-08-20, 02:34:05,VALID,1002.64,VALID,0,VALID,84.7569,VALID,0,VALID,26.6614,VALID,352,VALID,0.555859,
2010-08-20, 02:35:05,VALID,1002.64,VALID,0,VALID,84.9476,VALID,0,VALID,26.6225,VALID,2,VALID,0.729297,
2010-08-20, 02:36:05,VALID,1002.61,VALID,0,VALID,85.0468,VALID,0,VALID,26.5855,VALID,69,VALID,0.51875,
2010-08-20, 02:37:05,VALID,1002.62,VALID,0,VALID,84.9476,VALID,0,VALID,26.605,VALID,90,VALID,0.498828,
2010-08-20, 02:38:05,VALID,1002.63,VALID,0,VALID,85.0239,VALID,0,VALID,26.605,VALID,82,VALID,0.583984,
2010-08-20, 02:39:05,VALID,1002.65,VALID,0,VALID,84.7874,VALID,0,VALID,26.603,VALID,87,VALID,1.20313,
2010-08-20, 02:40:05,VALID,1002.71,VALID,0,VALID,84.8103,VALID,0,VALID,26.644,VALID,81,VALID,0.621484,
2010-08-20, 02:41:05,VALID,1002.71,VALID,0,VALID,84.8255,VALID,0,VALID,26.6635,VALID,51,VALID,0.753125,
2010-08-20, 02:42:05,VALID,1002.71,VALID,0,VALID,84.6119,VALID,0,VALID,26.6635,VALID,108,VALID,1.15586,
2010-08-20, 02:43:05,VALID,1002.75,VALID,0,VALID,84.3678,VALID,0,VALID,26.7219,VALID,91,VALID,0.863281,
2010-08-20, 02:44:05,VALID,1002.73,VALID,0,VALID,84.3907,VALID,0,VALID,26.7414,VALID,95,VALID,1.55703,
2010-08-20, 02:45:05,VALID,1002.74,VALID,0,VALID,84.1923,VALID,0,VALID,26.7394,VALID,118,VALID,1.47539,
2010-08-20, 02:46:05,VALID,1002.69,VALID,0,VALID,83.994,VALID,0,VALID,26.7998,VALID,131,VALID,0.971484,
2010-08-20, 02:47:05,VALID,1002.69,VALID,0,VALID,83.9177,VALID,0,VALID,26.8193,VALID,93,VALID,1.28398,
2010-08-20, 02:48:05,VALID,1002.68,VALID,0,VALID,83.9024,VALID,0,VALID,26.8388,VALID,83,VALID,0.733203,
2010-08-20, 02:49:05,VALID,1002.66,VALID,0,VALID,83.8338,VALID,0,VALID,26.8583,VALID,110,VALID,1.5125,
2010-08-20, 02:50:05,VALID,1002.6,VALID,0,VALID,83.5134,VALID,0,VALID,26.8757,VALID,16,VALID,1.34414,
2010-08-20, 02:51:05,VALID,1002.63,VALID,0,VALID,83.5362,VALID,0,VALID,26.8757,VALID,112,VALID,1.38945,
2010-08-20, 02:52:05,VALID,1002.61,VALID,0,VALID,83.1853,VALID,0,VALID,26.9752,VALID,109,VALID,0.961719,
2010-08-20, 02:53:05,VALID,1002.58,VALID,0,VALID,82.8573,VALID,0,VALID,27.0121,VALID,107,VALID,1.40625,
2010-08-20, 02:54:05,VALID,1002.62,VALID,0,VALID,82.6208,VALID,0,VALID,27.0921,VALID,121,VALID,1.98984,
2010-08-20, 02:55:05,VALID,1002.63,VALID,0,VALID,82.6742,VALID,0,VALID,27.1506,VALID,133,VALID,1.63125,
2010-08-20, 02:56:05,VALID,1002.63,VALID,0,VALID,82.3766,VALID,0,VALID,27.1311,VALID,144,VALID,2.25664,
2010-08-20, 02:57:05,VALID,1002.64,VALID,0,VALID,82.6131,VALID,0,VALID,27.0921,VALID,143,VALID,1.70703,
2010-08-20, 02:58:05,VALID,1002.66,VALID,0,VALID,82.5597,VALID,0,VALID,27.0142,VALID,153,VALID,1.99688,
2010-08-20, 02:59:05,VALID,1002.65,VALID,0,VALID,81.6519,VALID,0,VALID,26.9167,VALID,165,VALID,2.60352,
2010-08-20, 03:00:04,VALID,1002.67,VALID,0,VALID,81.9799,VALID,0,VALID,26.8388,VALID,171,VALID,2.30977,
2010-08-20, 03:01:04,VALID,1002.63,VALID,0,VALID,82.3461,VALID,0,VALID,26.7609,VALID,181,VALID,1.76602,
2010-08-20, 03:02:04,VALID,1002.66,VALID,0,VALID,82.6818,VALID,0,VALID,26.7024,VALID,189,VALID,0.903906,
2010-08-20, 03:03:04,VALID,1002.71,VALID,0,VALID,82.987,VALID,0,VALID,26.6635,VALID,170,VALID,1.23828,
2010-08-20, 03:04:04,VALID,1002.69,VALID,0,VALID,83.3226,VALID,0,VALID,26.605,VALID,188,VALID,1.04883,
2010-08-20, 03:05:04,VALID,1002.75,VALID,0,VALID,83.4523,VALID,0,VALID,26.5661,VALID,181,VALID,1.08906,
2010-08-20, 03:06:04,VALID,1002.74,VALID,0,VALID,83.2311,VALID,0,VALID,26.4881,VALID,181,VALID,0.978125,
2010-08-20, 03:07:04,VALID,1002.77,VALID,0,VALID,83.2845,VALID,0,VALID,26.4297,VALID,169,VALID,1.33359,
2010-08-20, 03:08:04,VALID,1002.8,VALID,0,VALID,83.5896,VALID,0,VALID,26.3713,VALID,187,VALID,1.91953,
2010-08-20, 03:09:04,VALID,1002.77,VALID,0,VALID,84.1542,VALID,0,VALID,26.3323,VALID,161,VALID,1.13125,
2010-08-20, 03:10:04,VALID,1002.76,VALID,0,VALID,84.6501,VALID,0,VALID,26.2933,VALID,125,VALID,0.741016,
2010-08-20, 03:11:04,VALID,1002.78,VALID,0,VALID,84.8866,VALID,0,VALID,26.2154,VALID,158,VALID,0.654688,
2010-08-20, 03:12:04,VALID,1002.74,VALID,0,VALID,85.2375,VALID,0,VALID,26.2154,VALID,165,VALID,0.491406,
2010-08-20, 03:13:04,VALID,1002.75,VALID,0,VALID,85.3519,VALID,0,VALID,26.155,VALID,187,VALID,0.819922,
2010-08-20, 03:14:04,VALID,1002.71,VALID,0,VALID,85.5503,VALID,0,VALID,26.1375,VALID,111,VALID,0.661719,
2010-08-20, 03:15:04,VALID,1002.71,VALID,0,VALID,85.9317,VALID,0,VALID,26.118,VALID,152,VALID,0.526563,
2010-08-20, 03:16:04,VALID,1002.67,VALID,0,VALID,86.1835,VALID,0,VALID,26.118,VALID,221,VALID,1.04414,
2010-08-20, 03:17:04,VALID,1002.69,VALID,0,VALID,86.4657,VALID,0,VALID,26.0985,VALID,170,VALID,0.397656,
2010-08-20, 03:18:04,VALID,1002.67,VALID,0,VALID,86.6946,VALID,0,VALID,26.0985,VALID,214,VALID,1.00117,
2010-08-20, 03:19:04,VALID,1002.72,VALID,0,VALID,86.9082,VALID,0,VALID,26.0985,VALID,217,VALID,0.464453,
2010-08-20, 03:20:04,VALID,1002.72,VALID,0,VALID,86.9845,VALID,0,VALID,26.1005,VALID,217,VALID,0.504297,
2010-08-20, 03:21:04,VALID,1002.71,VALID,0,VALID,86.9616,VALID,0,VALID,26.0596,VALID,210,VALID,0.669141,
2010-08-20, 03:22:04,VALID,1002.72,VALID,0,VALID,87.3202,VALID,0,VALID,26.0596,VALID,196,VALID,0.281641,
2010-08-20, 03:23:04,VALID,1002.7,VALID,0,VALID,87.7092,VALID,0,VALID,26.0381,VALID,143,VALID,0.261328,
2010-08-20, 03:24:04,VALID,1002.63,VALID,0,VALID,88.1059,VALID,0,VALID,26.0596,VALID,143,VALID,0.0457031,
2010-08-20, 03:25:04,VALID,1002.57,VALID,0,VALID,88.434,VALID,0,VALID,26.0401,VALID,143,VALID,0.155469,
2010-08-20, 03:26:04,VALID,1002.54,VALID,0,VALID,88.6628,VALID,0,VALID,26.0187,VALID,143,VALID,0.0277344,
2010-08-20, 03:27:04,VALID,1002.53,VALID,0,VALID,88.9451,VALID,0,VALID,26.0187,VALID,143,VALID,0,
2010-08-20, 03:28:04,VALID,1002.49,VALID,0,VALID,89.0977,VALID,0,VALID,26.0401,VALID,143,VALID,0.174219,
2010-08-20, 03:29:04,VALID,1002.5,VALID,0,VALID,89.1816,VALID,0,VALID,26.0206,VALID,143,VALID,0.397656,
2010-08-20, 03:30:04,VALID,1002.49,VALID,0,VALID,89.5859,VALID,0,VALID,26.0012,VALID,65,VALID,0.49375,
2010-08-20, 03:31:04,VALID,1002.51,VALID,0,VALID,89.7614,VALID,0,VALID,26.0012,VALID,65,VALID,0.406641,
2010-08-20, 03:32:04,VALID,1002.49,VALID,0,VALID,89.8453,VALID,0,VALID,25.9602,VALID,65,VALID,0.371094,
2010-08-20, 03:33:04,VALID,1002.51,VALID,0,VALID,90.0437,VALID,0,VALID,25.9622,VALID,65,VALID,0.0972656,
2010-08-20, 03:34:04,VALID,1002.56,VALID,0,VALID,90.4556,VALID,0,VALID,25.9427,VALID,65,VALID,0.239063,
2010-08-20, 03:35:04,VALID,1002.59,VALID,0,VALID,90.86,VALID,0,VALID,25.9213,VALID,65,VALID,0.300781,
2010-08-20, 03:36:04,VALID,1002.63,VALID,0,VALID,91.2796,VALID,0,VALID,25.9232,VALID,65,VALID,0.324219,
2010-08-20, 03:37:04,VALID,1002.74,VALID,0,VALID,92.0348,VALID,0,VALID,25.9232,VALID,65,VALID,0.424219,
2010-08-20, 03:38:04,VALID,1002.9,VALID,0.5,VALID,104,VALID,0,VALID,25.9038,VALID,96,VALID,1.91602,
2010-08-20, 03:39:04,VALID,1002.82,VALID,1.5,INVALID,116.173,VALID,0,VALID,25.67,VALID,103,VALID,1.17891,
2010-08-20, 03:40:04,VALID,1002.83,VALID,0.5,INVALID,117.897,VALID,0,VALID,25.4734,VALID,114,VALID,0.939453,
2010-08-20, 03:41:04,VALID,1002.75,VALID,1.5,INVALID,118.484,VALID,0,VALID,25.3974,VALID,114,VALID,0.612891,
2010-08-20, 03:42:04,VALID,1002.72,VALID,0.5,INVALID,118.477,VALID,0,VALID,25.339,VALID,30,VALID,0.578516,
2010-08-20, 03:43:04,VALID,1002.69,VALID,0,INVALID,118.171,VALID,0,VALID,25.3195,VALID,35,VALID,0.276563,
2010-08-20, 03:44:04,VALID,1002.77,VALID,0,INVALID,117.828,VALID,0,VALID,25.2981,VALID,141,VALID,1.52773,
2010-08-20, 03:45:04,VALID,1002.71,VALID,0,INVALID,117.5,VALID,0,VALID,25.3,VALID,106,VALID,2.19102,
2010-08-20, 03:46:04,VALID,1002.7,VALID,0.5,INVALID,117.66,VALID,0,VALID,25.1813,VALID,101,VALID,1.79531,